EDT,Max TemperatureF,Mean TemperatureF,Min TemperatureF,Max Dew PointF,MeanDew PointF,Min DewpointF,Max Humidity, Mean Humidity, Min Humidity, Max Sea Level PressureIn, Mean Sea Level PressureIn, Min Sea Level PressureIn, Max VisibilityMiles, Mean VisibilityMiles, Min VisibilityMiles, Max Wind SpeedMPH, Mean Wind SpeedMPH, Max Gust SpeedMPH,PrecipitationIn, CloudCover, Events, WindDirDegrees
2013-10-1,75,65,57,62,60,54,100,89,64,30.04,29.99,29.95,10,5,0,16,7,22,0.00,5,Fog,203
2013-10-2,82,72,62,64,61,55,100,81,42,30.09,30.04,29.99,10,6,0,8,3,,0.00,4,Fog,199
2013-10-3,77,68,59,68,64,59,100,90,66,30.03,30.00,29.91,10,4,0,15,4,21,0.38,6,Fog-Rain-Thunderstorm,185
2013-10-4,79,72,66,70,66,62,90,81,69,30.02,29.99,29.94,10,10,8,13,8,,0.01,3,Thunderstorm,199
2013-10-5,77,66,64,66,65,64,100,90,87,30.00,29.88,29.85,10,9,2,7,5,,0.02,6,Rain,181
2013-10-6,70,61,48,66,56,40,100,88,62,29.86,29.76,29.71,10,7,2,21,10,25,0.30,7,Rain,241
2013-10-7,61,52,42,48,43,39,93,78,52,30.14,29.93,29.78,10,10,9,18,10,26,0.00,3,,249
2013-10-8,72,58,43,51,46,41,93,70,44,30.25,30.21,30.14,10,10,6,12,5,20,0.00,0,,145
2013-10-9,72,57,42,48,44,40,92,67,38,30.29,30.23,30.19,10,10,8,10,6,,0.00,0,,113
2013-10-10,75,59,45,52,46,42,93,69,35,30.21,30.16,30.11,10,10,5,6,1,,0.00,0,,134
2013-10-11,75,58,42,51,45,39,100,72,33,30.14,30.09,30.04,10,7,0,9,3,,0.00,0,Fog,126
2013-10-12,79,64,51,63,54,47,94,72,39,30.12,30.06,30.01,10,8,4,15,6,21,0.01,2,,186
2013-10-13,66,54,41,58,44,38,100,77,40,30.39,30.30,30.14,10,8,0,13,4,17,0.00,0,Fog,321
2013-10-14,66,50,35,47,40,35,100,81,46,30.41,30.35,30.23,10,8,1,13,2,,0.00,0,,78
2013-10-15,66,57,48,61,55,42,94,86,78,30.21,29.96,29.85,10,8,4,16,9,23,0.08,5,Rain,168
2013-10-16,63,54,46,60,47,42,90,80,71,29.96,29.90,29.84,10,10,7,17,10,24,0.00,6,,243
2013-10-17,52,48,42,47,45,40,92,84,74,29.94,29.88,29.82,10,10,6,17,8,24,0.05,7,Rain,233
2013-10-18,61,50,39,45,40,36,93,76,53,29.98,29.92,29.89,10,10,7,21,9,26,0.00,2,,234
2013-10-19,54,46,42,42,39,35,93,79,54,29.93,29.86,29.81,10,9,4,16,7,,0.25,7,Rain,236
2013-10-20,63,50,39,42,39,35,86,64,46,29.94,29.87,29.83,10,10,10,22,12,32,0.00,4,,207
2013-10-21,55,47,39,46,40,28,83,69,60,29.95,29.89,29.84,10,10,10,17,12,26,0.00,6,Rain,240
2013-10-22,48,39,30,36,29,24,93,73,41,30.00,29.96,29.92,10,10,9,16,9,16,0.00,4,Rain,244
2013-10-23,45,38,32,36,33,27,100,87,57,30.02,29.91,29.84,10,6,1,18,3,23,0.02,7,Rain-Snow,287
2013-10-24,43,36,30,34,32,28,100,84,61,30.27,30.12,29.98,10,8,1,16,8,21,0.06,8,Rain-Snow,282
2013-10-25,48,39,30,33,29,26,96,70,44,30.40,30.30,30.16,10,10,6,18,6,23,0.00,3,,240
2013-10-26,54,45,37,40,32,26,79,62,52,30.13,29.97,29.85,10,10,10,22,17,32,0.00,7,Rain,250
2013-10-27,55,42,30,35,30,28,92,65,38,30.09,30.05,30.01,10,10,10,14,4,,0.00,1,,218
2013-10-28,59,44,30,38,33,27,89,70,42,30.37,30.23,30.08,10,10,9,10,2,,0.00,0,,60
2013-10-29,55,44,32,39,35,30,92,76,55,30.41,30.33,30.22,10,10,8,10,4,,0.00,1,,106
2013-10-30,64,50,37,58,49,36,96,85,69,30.19,30.06,29.90,10,5,1,12,5,,0.64,6,Rain-Thunderstorm,129
2013-10-31,64,60,54,63,58,51,94,90,86,29.87,29.54,29.21,10,5,2,32,17,41,1.24,8,Rain,207